{"data":{"norad_id":40016,"epoch":"2026-09-20T03:14:52.193184Z","epoch_age_seconds":45852,"freshness":"FRESH","line1":"1 40016U 14033G   26263.13532631  .00000458  00000+0  66811-4 0  9997","line2":"2 40016  97.7726  46.0721 0045891 123.4649 237.0963 14.79645010660118","mean_motion":14.7964501,"eccentricity":0.0045891,"inclination_deg":97.7726,"raan_deg":46.0721,"arg_perigee_deg":123.4649,"mean_anomaly_deg":237.0963,"bstar":6.6811e-5,"rev_number":66011,"period_min":97.320640441994,"perigee_km":598.28180654173,"apogee_km":662.6079728417,"semimajor_km":7008.5818896917,"source":"CELESTRAK","updated_at":"2026-09-20T09:00:47.445035Z"}}